Regional Weather Roundup
Issued by NWS Sioux Falls, SD

Home | Current Version | Previous Version | Text Only | Print | Product List | Glossary On
Versions: 1 2 3 4 5 6 7 8 9 10 11 12 13 14 15 16 17 18 19 20 21 22 23 24 25 26 27 28 29 30 31 32 33 34 35 36 37 38 39 40 41 42 43 44 45 46 47 48 49 50
000
ASUS43 KFSD 291110
RWRFSD

WEATHER ROUNDUP FOR SE SOUTH DAKOTA/SW MINNESOTA/NW IOWA
NATIONAL WEATHER SERVICE SIOUX FALLS SD
600 AM CDT TUE JUL 29 2014

NOTE: "FAIR" INDICATES FEW OR NO CLOUDS BELOW 12,000 FEET WITH NO
SIGNIFICANT WEATHER AND OR OBSTRUCTIONS TO VISIBILITY.


SDZ038>040-050-052>070-291200-
SOUTHEAST SOUTH DAKOTA

CITY           SKY/WX    TMP DP  RH WIND       PRES   REMARKS
CHAMBERLAIN    CLEAR     45  43  95 CALM      30.22S
HURON          CLEAR     48  47  96 CALM      30.21S FOG
MADISON        FAIR      46  46 100 NW3       30.22F
MITCHELL       CLEAR     50  49  96 NW5       30.23R
SIOUX FALLS    PTCLDY    51  49  92 CALM      30.21S
WINNER         FAIR      54  49  83 E5        30.23R
YANKTON        CLEAR     52  48  87 NW5       30.22R
$$

MNZ071-072-080-081-089-090-097-098-291200-
SOUTHWEST MINNESOTA

CITY           SKY/WX    TMP DP  RH WIND       PRES   REMARKS
FAIRMONT       CLEAR     54  48  82 NW7       30.17S
JACKSON        PTCLDY    54  50  87 NW5       30.19S
LUVERNE        CLEAR     52  46  82 CALM      30.21S
MARSHALL       CLEAR     52  46  82 W8        30.19S
MONTEVIDEO     CLEAR     54  52  94 NW5       30.19S
PIPESTONE      CLEAR     54  50  87 CALM      30.21S
REDWOOD FALLS  CLEAR     53  52  96 W8        30.17S
TRACY          CLEAR     56  51  85 W6        30.20S
WINDOM         CLEAR     52  48  87 CALM      30.19S
WORTHINGTON    CLEAR     52  48  87 NW6       30.21S
$$

IAZ001>003-012>014-020>022-031-032-NEZ013-014-SDZ071-291200-
NORTHWEST IOWA

CITY           SKY/WX    TMP DP  RH WIND       PRES   REMARKS
CHEROKEE       CLEAR     49  49 100 CALM      30.19S
DENISON        CLEAR     52  52 100 CALM      30.17S FOG
ESTHERVILLE    CLEAR     53  51  93 NW7       30.18S
LE MARS        CLEAR     50  50 100 CALM      30.21S
ORANGE CITY    CLEAR     55  52  88 CALM      30.20F
SHELDON        CLEAR     46  46 100 CALM      30.19S
SIOUX CITY     CLEAR     53  52  96 NW3       30.20S
SPENCER        CLEAR     48  46  93 NW3       30.19S
STORM LAKE     CLEAR     54  52  94 N7        30.20S
$$

ABBREVIATIONS USED IN REMARKS
   TC - TEMPERATURE IN CELSIUS
  WCI - WIND CHILL INDEX
   HX - HEAT INDEX
  VSB - VISIBILITY




USA.gov is the U.S. government's official web portal to all federal, state and local government web resources and services.